This is the latest recevied weather packets stored in our database for station/object VK2OB. If no packets are shown the sender has not sent any weather packets the latest 10 day(s).
| Time | Temp. | Humidity | Pressure | Rain* | Wind** | Luminosity | Snow |
|---|---|---|---|---|---|---|---|
| 1777934856 | 17.22° C | 71% | 1019.5 hPa | 0 mm | - | - | - |
| 1777934557 | 17.22° C | 74% | 1019.4 hPa | 0 mm | - | - | - |
| 1777934258 | 17.22° C | 75% | 1019.4 hPa | 0 mm | - | - | - |
| 1777933959 | 16.67° C | 77% | 1019.4 hPa | 0 mm | - | - | - |
| 1777933659 | 16.67° C | 77% | 1019.3 hPa | 0 mm | - | - | - |
| 1777933360 | 16.67° C | 76% | 1019.3 hPa | 0 mm | - | - | - |
| 1777933061 | 16.67° C | 75% | 1019.2 hPa | 0.25 mm | - | - | - |
| 1777932762 | 16.67° C | 74% | 1019 hPa | 0.25 mm | - | - | - |
| 1777932463 | 16.67° C | 73% | 1018.9 hPa | 0.25 mm | - | - | - |
| 1777932164 | 16.67° C | 72% | 1018.7 hPa | 0.25 mm | - | - | - |
| 1777931865 | 16.67° C | 73% | 1018.8 hPa | 0.25 mm | - | - | - |
| 1777931566 | 16.11° C | 76% | 1018.7 hPa | 0.25 mm | - | - | - |
| 1777931267 | 16.11° C | 78% | 1018.5 hPa | 0.25 mm | - | - | - |
| 1777930968 | 16.11° C | 79% | 1018.6 hPa | 0.25 mm | - | - | - |
| 1777930669 | 16.11° C | 81% | 1018.4 hPa | 0.25 mm | - | - | - |
| 1777930370 | 16.11° C | 82% | 1018.3 hPa | 0.25 mm | - | - | - |
| 1777930071 | 16.11° C | 84% | 1018.1 hPa | 0.25 mm | - | - | - |
| 1777929772 | 16.11° C | 87% | 1018.1 hPa | 0.25 mm | - | - | - |
| 1777929473 | 16.11° C | 90% | 1018 hPa | 0 mm | - | - | - |
| 1777929173 | 16.11° C | 94% | 1017.9 hPa | 0 mm | - | - | - |
| 1777928874 | 16.11° C | 95% | 1017.8 hPa | 0 mm | - | - | - |
| 1777928574 | 15.56° C | 95% | 1017.7 hPa | 0 mm | - | - | - |
| 1777928276 | 16.11° C | 95% | 1017.7 hPa | 0 mm | - | - | - |
| 1777927977 | 16.11° C | 95% | 1017.6 hPa | 0 mm | - | - | - |
| 1777927678 | 16.11° C | 95% | 1017.5 hPa | 0 mm | - | - | - |
* Rain latest hour (hover to see other rain measurements)
** Current wind speed in m/s (hover to see current wind gust speed)